Zurück zum Katalog

STARLINK-37001

AktivKommunikationVLEO
NORAD 68330·PAYLOAD·🇺🇸 United States

Gestartet Mar 22, 2026 von Cape Canaveral Space Force Station

Loading…

Nächste Überflüge (nächste 24 Stunden)

TLE

AktuellSource: CelesTrak SupGP

Epoche: Sep 14, 2026, 23:06 UTC

1 68330C 26059K   26257.96298611 -.00032789  00000+0 -96839-3 0  2571
2 68330  53.1586 187.4505 0001399  90.9795  63.6940 15.34418701    14

Verfolge STARLINK-37001 in Echtzeit mit AllMySat

Download on the App Store